Orbital Elements at Epoch 2459200.5 (2020-Dec-17.0) TDB
Reference: JPL 14 (heliocentric ecliptic J2000)
Element | Value | Uncertainty (1-sigma) | Units |
e | .1353288142724183 | 4.9273e-08 | |
a | 2.542985472169438 | 1.9126e-08 | au |
q | 2.198846263508762 | 1.28e-07 | au |
i | 1.69900611620059 | 7.1558e-06 | deg |
node | 305.8230300314796 | 0.00013727 | deg |
peri | 307.4842584666599 | 0.00013969 | deg |
M | 329.6921740360551 | 2.7583e-05 | deg |
tp | 2459325.200021827273 (2021-Apr-20.70002183) | 0.00011416 | TDB |
period | 1481.201849028137 4.06 | 1.6711e-05 4.575e-08 | d yr |
n | .2430458753722239 | 2.742e-09 | deg/d |
Q | 2.887124680830114 | 2.1715e-08 | au |
|
| | Orbit Determination Parameters
Additional Information
|